Back to catalog

STARLINK-36134

AliveCommunicationsVLEO
NORAD 66863·PAYLOAD·🇺🇸 United States

Launched Dec 2, 2025 from Cape Canaveral Space Force Station

Loading…

Next Passes (next 24 hours)

TLE

FreshSource: CelesTrak SupGP

Epoch: Sep 14, 2026, 15:00 UTC

1 66863C 25281R   26257.62548611 -.00029151  00000+0 -10561-2 0  2573
2 66863  43.0043 356.0352 0001841 271.5943 164.1846 15.27584702    16

Track STARLINK-36134 in real time with AllMySat

Download on the App Store